| time (UTC) | temp C | wind direction | speed KPH | gust KPH | rain 1hr cm | rain 24hr cm | rain mn cm | humidity % | barometer mb |
| 20260906124321 | 17 | 96 | 8.0 | 19.3 | 0.00 | 0.25 | 0.25 | 83 | 1016.9 |
| 20260906123822 | 17 | 137 | 4.8 | 12.9 | 0.00 | 0.25 | 0.25 | 83 | 1017.1 |
| 20260906123320 | 16 | 103 | 3.2 | 12.9 | 0.00 | 0.25 | 0.25 | 82 | 1017.1 |
| 20260906122820 | 16 | 97 | 6.4 | 12.9 | 0.00 | 0.25 | 0.25 | 82 | 1017.1 |
| 20260906121821 | 16 | 85 | 4.8 | 16.1 | 0.00 | 0.25 | 0.25 | 85 | 1017.2 |
| 20260906121322 | 16 | 74 | 6.4 | 11.3 | 0.00 | 0.25 | 0.25 | 86 | 1017.1 |
| 20260906120822 | 15 | 99 | 3.2 | 8.0 | 0.00 | 0.25 | 0.25 | 86 | 1017.1 |
| 20260906120321 | 15 | 77 | 3.2 | 9.7 | 0.00 | 0.25 | 0.25 | 88 | 1017.2 |
| 20260906115821 | 15 | 96 | 4.8 | 8.0 | 0.00 | 0.25 | 0.25 | 88 | 1017.3 |
| 20260906115321 | 15 | 85 | 4.8 | 11.3 | 0.03 | 0.25 | 0.25 | 90 | 1017.6 |
| 20260906114821 | 15 | 98 | 1.6 | 11.3 | 0.05 | 0.25 | 0.25 | 90 | 1017.8 |
| 20260906114320 | 15 | 90 | 4.8 | 11.3 | 0.10 | 0.25 | 0.25 | 89 | 1017.8 |
| 20260906113821 | 14 | 103 | 1.6 | 4.8 | 0.10 | 0.25 | 0.25 | 89 | 1017.8 |
| 20260906113322 | 14 | 90 | 3.2 | 8.0 | 0.10 | 0.25 | 0.25 | 90 | 1018.0 |
| 20260906112821 | 14 | 92 | 1.6 | 8.0 | 0.10 | 0.25 | 0.25 | 91 | 1018.1 |
| 20260906111821 | 14 | 82 | 1.6 | 8.0 | 0.13 | 0.25 | 0.25 | 91 | 1018.3 |
| 20260906110821 | 13 | 349 | 1.6 | 8.0 | 0.15 | 0.25 | 0.25 | 88 | 1018.4 |
| 20260906110321 | 13 | 86 | 1.6 | 8.0 | 0.15 | 0.25 | 0.25 | 88 | 1018.4 |
| 20260906105821 | 13 | 103 | 3.2 | 8.0 | 0.15 | 0.25 | 0.25 | 88 | 1018.5 |
| 20260906105321 | 13 | 199 | 4.8 | 11.3 | 0.13 | 0.23 | 0.23 | 88 | 1018.5 |
| 20260906104820 | 13 | 144 | 4.8 | 9.7 | 0.08 | 0.20 | 0.20 | 87 | 1018.7 |
| 20260906104320 | 13 | 167 | 3.2 | 14.5 | 0.05 | 0.15 | 0.15 | 87 | 1018.7 |
| 20260906103320 | 13 | 210 | 1.6 | 11.3 | 0.08 | 0.15 | 0.15 | 87 | 1018.8 |
| 20260906102821 | 13 | 195 | 4.8 | 11.3 | 0.08 | 0.15 | 0.15 | 86 | 1018.9 |
| 20260906102321 | 13 | 203 | 4.8 | 11.3 | 0.08 | 0.15 | 0.15 | 86 | 1018.9 |
| 20260906101321 | 13 | 224 | 8.0 | 12.9 | 0.05 | 0.13 | 0.13 | 84 | 1018.9 |
| 20260906100821 | 13 | 157 | 4.8 | 12.9 | 0.08 | 0.13 | 0.13 | 83 | 1018.9 |
| 20260906100321 | 13 | 228 | 4.8 | 14.5 | 0.08 | 0.13 | 0.13 | 83 | 1018.9 |
| 20260906095820 | 13 | 139 | 3.2 | 9.7 | 0.08 | 0.13 | 0.13 | 83 | 1018.9 |
| 20260906095320 | 13 | 130 | 3.2 | 8.0 | 0.10 | 0.13 | 0.13 | 83 | 1018.9 |
| 20260906094820 | 13 | 128 | 8.0 | 12.9 | 0.10 | 0.13 | 0.13 | 84 | 1019.0 |
| 20260906094320 | 14 | 187 | 4.8 | 14.5 | 0.13 | 0.13 | 0.13 | 85 | 1019.1 |
| 20260906093820 | 14 | 139 | 6.4 | 11.3 | 0.10 | 0.10 | 0.10 | 85 | 1019.2 |
| 20260906093320 | 14 | 195 | 9.7 | 19.3 | 0.08 | 0.08 | 0.08 | 84 | 1019.2 |
| 20260906092821 | 14 | 195 | 4.8 | 11.3 | 0.08 | 0.08 | 0.08 | 85 | 1019.3 |
| 20260906091822 | 14 | 238 | 8.0 | 14.5 | 0.05 | 0.05 | 0.05 | 84 | 1019.4 |
| 20260906091321 | 14 | 216 | 6.4 | 11.3 | 0.05 | 0.05 | 0.05 | 84 | 1019.4 |
| 20260906090820 | 14 | 252 | 4.8 | 8.0 | 0.05 | 0.05 | 0.05 | 84 | 1019.4 |
| 20260906085821 | 15 | 235 | 3.2 | 8.0 | 0.05 | 0.05 | 0.05 | 80 | 1019.3 |
| 20260906085320 | 15 | 195 | 3.2 | 8.0 | 0.03 | 0.03 | 0.03 | 80 | 1019.2 |
| 20260906084820 | 15 | 209 | 3.2 | 9.7 | 0.03 | 0.03 | 0.03 | 79 | 1019.1 |
| 20260906084320 | 15 | 245 | 4.8 | 11.3 | 0.00 | 0.00 | 0.00 | 80 | 1019.1 |
| 20260906083821 | 15 | 150 | 1.6 | 9.7 | 0.00 | 0.00 | 0.00 | 79 | 1019.1 |
| 20260906083321 | 15 | 218 | 1.6 | 3.2 | 0.00 | 0.00 | 0.00 | 78 | 1019.0 |
| 20260906082821 | 15 | 214 | 4.8 | 11.3 | 0.00 | 0.00 | 0.00 | 77 | 1019.1 |
| 20260906082320 | 15 | 123 | 0.0 | 3.2 | 0.00 | 0.00 | 0.00 | 79 | 1019.1 |
| 20260906081821 | 15 | 123 | 1.6 | 3.2 | 0.00 | 0.00 | 0.00 | 78 | 1019.1 |
| 20260906081320 | 15 | 123 | 0.0 | 3.2 | 0.00 | 0.00 | 0.00 | 79 | 1019.0 |
| 20260906080320 | 15 | 123 | 0.0 | 1.6 | 0.00 | 0.00 | 0.00 | 79 | 1019.1 |
| 20260906075820 | 15 | 123 | 0.0 | 1.6 | 0.00 | 0.00 | 0.00 | 80 | 1019.0 |
| 20260906075320 | 14 | 123 | 0.0 | 3.2 | 0.00 | 0.00 | 0.00 | 79 | 1019.1 |
| 20260906074321 | 14 | 123 | 0.0 | 0.0 | 0.00 | 0.00 | 0.00 | 80 | 1019.0 |
| 20260906073320 | 13 | 123 | 0.0 | 3.2 | 0.00 | 0.00 | 0.00 | 81 | 1019.1 |
| 20260906072820 | 13 | 123 | 0.0 | 3.2 | 0.00 | 0.00 | 0.00 | 81 | 1019.1 |
| 20260906072320 | 13 | 123 | 1.6 | 3.2 | 0.00 | 0.00 | 0.00 | 79 | 1019.1 |
| 20260906071821 | 14 | 120 | 1.6 | 4.8 | 0.00 | 0.00 | 0.00 | 79 | 1019.1 |
| 20260906071321 | 14 | 165 | 1.6 | 4.8 | 0.00 | 0.00 | 0.00 | 79 | 1019.2 |
| 20260906070820 | 13 | 300 | 1.6 | 4.8 | 0.00 | 0.00 | 0.00 | 80 | 1019.3 |
| 20260906070321 | 13 | 304 | 1.6 | 3.2 | 0.00 | 0.00 | 0.00 | 81 | 1019.4 |
| 20260906065820 | 13 | 304 | 0.0 | 3.2 | 0.00 | 0.00 | 0.00 | 81 | 1019.4 |
| 20260906064820 | 12 | 304 | 0.0 | 3.2 | 0.00 | 0.00 | 0.00 | 83 | 1019.4 |
| 20260906064320 | 12 | 304 | 0.0 | 3.2 | 0.00 | 0.00 | 0.00 | 85 | 1019.5 |
| 20260906063321 | 12 | 304 | 0.0 | 3.2 | 0.00 | 0.00 | 0.00 | 86 | 1019.5 |
| 20260906062322 | 12 | 304 | 1.6 | 3.2 | 0.00 | 0.00 | 0.00 | 87 | 1019.6 |
| 20260906061320 | 12 | 304 | 0.0 | 0.0 | 0.00 | 0.00 | 0.00 | 87 | 1019.8 |
| 20260906060821 | 12 | 304 | 1.6 | 4.8 | 0.00 | 0.00 | 0.00 | 87 | 1019.9 |
| 20260906060321 | 12 | 204 | 1.6 | 3.2 | 0.00 | 0.00 | 0.00 | 87 | 1020.0 |
| 20260906055820 | 12 | 204 | 0.0 | 1.6 | 0.00 | 0.00 | 0.00 | 87 | 1020.1 |
| 20260906055320 | 12 | 204 | 1.6 | 3.2 | 0.00 | 0.00 | 0.00 | 86 | 1020.2 |
| 20260906054821 | 12 | 204 | 0.0 | 1.6 | 0.00 | 0.00 | 0.00 | 86 | 1020.0 |
| 20260906054321 | 12 | 204 | 0.0 | 3.2 | 0.00 | 0.00 | 0.00 | 86 | 1020.0 |
| 20260906053820 | 12 | 204 | 1.6 | 3.2 | 0.00 | 0.00 | 0.00 | 86 | 1019.9 |
| 20260906053320 | 11 | 244 | 1.6 | 4.8 | 0.00 | 0.00 | 0.00 | 87 | 1019.9 |
| 20260906052820 | 11 | 123 | 1.6 | 3.2 | 0.00 | 0.00 | 0.00 | 88 | 1019.9 |
| 20260906052320 | 11 | 123 | 1.6 | 3.2 | 0.00 | 0.00 | 0.00 | 89 | 1019.9 |
| 20260906051820 | 11 | 123 | 1.6 | 4.8 | 0.00 | 0.00 | 0.00 | 89 | 1020.0 |
| 20260906051320 | 11 | 340 | 1.6 | 3.2 | 0.00 | 0.00 | 0.00 | 89 | 1020.0 |
| 20260906050820 | 11 | 340 | 3.2 | 3.2 | 0.00 | 0.00 | 0.00 | 90 | 1020.0 |
| 20260906050320 | 11 | 340 | 1.6 | 3.2 | 0.00 | 0.00 | 0.00 | 89 | 1020.1 |
| 20260906045821 | 11 | 340 | 1.6 | 3.2 | 0.00 | 0.00 | 0.00 | 89 | 1020.1 |
| 20260906045320 | 11 | 340 | 1.6 | 3.2 | 0.00 | 0.00 | 0.00 | 90 | 1020.2 |
| 20260906044320 | 10 | 340 | 1.6 | 3.2 | 0.00 | 0.00 | 0.00 | 90 | 1020.3 |
| 20260906043820 | 10 | 340 | 1.6 | 3.2 | 0.00 | 0.00 | 0.00 | 90 | 1020.3 |
| 20260906043320 | 10 | 340 | 1.6 | 3.2 | 0.00 | 0.00 | 0.00 | 90 | 1020.4 |
| 20260906041821 | 10 | 83 | 1.6 | 3.2 | 0.00 | 0.00 | 0.00 | 90 | 1020.5 |
| 20260906041320 | 11 | 83 | 0.0 | 1.6 | 0.00 | 0.00 | 0.00 | 90 | 1020.5 |
| 20260906040820 | 11 | 83 | 0.0 | 3.2 | 0.00 | 0.00 | 0.00 | 90 | 1020.6 |
| 20260906040320 | 11 | 83 | 0.0 | 1.6 | 0.00 | 0.00 | 0.00 | 90 | 1020.7 |
| 20260906035821 | 11 | 83 | 1.6 | 3.2 | 0.00 | 0.00 | 0.00 | 90 | 1020.7 |
| 20260906033822 | 11 | 83 | 0.0 | 1.6 | 0.00 | 0.00 | 0.00 | 90 | 1020.8 |
| 20260906033320 | 11 | 83 | 1.6 | 4.8 | 0.00 | 0.00 | 0.00 | 90 | 1020.9 |
| 20260906032821 | 11 | 82 | 3.2 | 4.8 | 0.00 | 0.00 | 0.00 | 90 | 1021.0 |
| 20260906031821 | 11 | 51 | 0.0 | 1.6 | 0.00 | 0.00 | 0.00 | 90 | 1021.2 |
| 20260906031321 | 11 | 51 | 1.6 | 3.2 | 0.00 | 0.00 | 0.00 | 90 | 1021.3 |
| 20260906030820 | 11 | 51 | 1.6 | 3.2 | 0.00 | 0.00 | 0.00 | 90 | 1021.3 |
| 20260906030320 | 11 | 39 | 3.2 | 4.8 | 0.00 | 0.00 | 0.00 | 90 | 1021.4 |
| 20260906025820 | 11 | 34 | 3.2 | 4.8 | 0.00 | 0.00 | 0.00 | 90 | 1021.5 |
| 20260906025320 | 11 | 15 | 1.6 | 4.8 | 0.00 | 0.00 | 0.00 | 91 | 1021.5 |
| 20260906024820 | 10 | 15 | 1.6 | 3.2 | 0.00 | 0.00 | 0.00 | 90 | 1021.6 |
| 20260906024320 | 10 | 15 | 0.0 | 3.2 | 0.00 | 0.00 | 0.00 | 89 | 1021.7 |
| 20260906023821 | 11 | 15 | 0.0 | 1.6 | 0.00 | 0.00 | 0.00 | 90 | 1021.8 |
| 20260906023320 | 11 | 15 | 0.0 | 3.2 | 0.00 | 0.00 | 0.00 | 90 | 1021.8 |
| 20260906022820 | 10 | 15 | 1.6 | 4.8 | 0.00 | 0.00 | 0.00 | 90 | 1021.9 |
| 20260906022321 | 10 | 252 | 3.2 | 3.2 | 0.00 | 0.00 | 0.00 | 90 | 1021.9 |
| 20260906021821 | 10 | 252 | 0.0 | 3.2 | 0.00 | 0.00 | 0.00 | 90 | 1021.9 |
| 20260906021320 | 10 | 252 | 1.6 | 1.6 | 0.00 | 0.00 | 0.00 | 90 | 1021.9 |
| 20260906020820 | 10 | 252 | 1.6 | 3.2 | 0.00 | 0.00 | 0.00 | 90 | 1021.9 |
| 20260906020320 | 10 | 252 | 1.6 | 3.2 | 0.00 | 0.00 | 0.00 | 90 | 1021.9 |
| 20260906015821 | 10 | 252 | 1.6 | 3.2 | 0.00 | 0.00 | 0.00 | 90 | 1021.9 |
| 20260906015320 | 10 | 252 | 0.0 | 1.6 | 0.00 | 0.00 | 0.00 | 90 | 1022.0 |
| 20260906014820 | 10 | 252 | 3.2 | 3.2 | 0.00 | 0.00 | 0.00 | 90 | 1022.1 |
| 20260906014320 | 10 | 252 | 1.6 | 3.2 | 0.00 | 0.00 | 0.00 | 90 | 1022.2 |
| 20260906013820 | 10 | 252 | 1.6 | 1.6 | 0.00 | 0.00 | 0.00 | 90 | 1022.3 |
| 20260906013320 | 10 | 252 | 0.0 | 0.0 | 0.00 | 0.00 | 0.00 | 90 | 1022.3 |
| 20260906012820 | 10 | 252 | 0.0 | 0.0 | 0.00 | 0.00 | 0.00 | 90 | 1022.4 |
| 20260906012320 | 10 | 252 | 0.0 | 0.0 | 0.00 | 0.00 | 0.00 | 90 | 1022.5 |
| 20260906011820 | 10 | 252 | 0.0 | 0.0 | 0.00 | 0.00 | 0.00 | 90 | 1022.5 |
| 20260906011320 | 10 | 252 | 0.0 | 0.0 | 0.00 | 0.00 | 0.00 | 89 | 1022.6 |
| 20260906010820 | 10 | 252 | 0.0 | 0.0 | 0.00 | 0.00 | 0.00 | 89 | 1022.6 |
| 20260906004820 | 10 | 252 | 1.6 | 1.6 | 0.00 | 0.00 | 0.00 | 89 | 1022.6 |
| 20260906004320 | 10 | 252 | 0.0 | 1.6 | 0.00 | 0.00 | 0.00 | 89 | 1022.7 |
| 20260906003821 | 10 | 252 | 1.6 | 3.2 | 0.00 | 0.00 | 0.00 | 89 | 1022.7 |
| 20260906002820 | 10 | 252 | 1.6 | 1.6 | 0.00 | 0.00 | 0.00 | 89 | 1022.8 |
| 20260906002319 | 10 | 252 | 1.6 | 3.2 | 0.00 | 0.00 | 0.00 | 89 | 1022.9 |
| 20260906000820 | 10 | 252 | 1.6 | 3.2 | 0.00 | 0.00 | 0.00 | 89 | 1023.0 |
| 20260906000320 | 10 | 252 | 3.2 | 3.2 | 0.00 | 0.00 | 0.00 | 88 | 1023.1 |
| 20260905235820 | 10 | 252 | 3.2 | 3.2 | 0.00 | 0.00 | 0.00 | 88 | 1023.1 |
| 20260905234820 | 10 | 252 | 1.6 | 3.2 | 0.00 | 0.00 | 0.00 | 88 | 1023.3 |
| 20260905234320 | 11 | 252 | 1.6 | 1.6 | 0.00 | 0.00 | 0.00 | 88 | 1023.3 |
| 20260905233820 | 11 | 252 | 1.6 | 1.6 | 0.00 | 0.00 | 0.00 | 87 | 1023.3 |
| 20260905232821 | 11 | 252 | 0.0 | 0.0 | 0.00 | 0.00 | 0.00 | 87 | 1023.5 |
| 20260905232319 | 11 | 252 | 0.0 | 1.6 | 0.00 | 0.00 | 0.00 | 87 | 1023.5 |
| 20260905231820 | 11 | 252 | 1.6 | 1.6 | 0.00 | 0.00 | 0.00 | 87 | 1023.5 |
| 20260905230903 | 11 | 252 | 1.6 | 1.6 | 0.00 | 0.00 | 0.00 | 87 | 1023.4 |
| 20260905230320 | 11 | 252 | 1.6 | 3.2 | 0.00 | 0.00 | 0.00 | 87 | 1023.4 |
| 20260905225820 | 11 | 252 | 1.6 | 3.2 | 0.00 | 0.00 | 0.00 | 86 | 1023.4 |
| 20260905225320 | 11 | 252 | 1.6 | 1.6 | 0.00 | 0.00 | 0.00 | 86 | 1023.3 |
| 20260905224822 | 11 | 252 | 1.6 | 1.6 | 0.00 | 0.00 | 0.00 | 86 | 1023.3 |
| 20260905224320 | 11 | 252 | 1.6 | 1.6 | 0.00 | 0.00 | 0.00 | 86 | 1023.3 |
| 20260905223820 | 11 | 252 | 1.6 | 1.6 | 0.00 | 0.00 | 0.00 | 86 | 1023.3 |
| 20260905223320 | 12 | 252 | 1.6 | 1.6 | 0.00 | 0.00 | 0.00 | 86 | 1023.2 |
| 20260905222820 | 12 | 252 | 1.6 | 1.6 | 0.00 | 0.00 | 0.00 | 86 | 1023.2 |
| 20260905222320 | 12 | 252 | 1.6 | 3.2 | 0.00 | 0.00 | 0.00 | 86 | 1023.3 |
| 20260905221821 | 12 | 252 | 1.6 | 1.6 | 0.00 | 0.00 | 0.00 | 86 | 1023.3 |
| 20260905221320 | 12 | 252 | 1.6 | 3.2 | 0.00 | 0.00 | 0.00 | 85 | 1023.3 |
| 20260905220820 | 12 | 252 | 0.0 | 3.2 | 0.00 | 0.00 | 0.00 | 86 | 1023.3 |
| 20260905220320 | 12 | 252 | 0.0 | 3.2 | 0.00 | 0.00 | 0.00 | 86 | 1023.3 |
| 20260905215821 | 12 | 252 | 0.0 | 3.2 | 0.00 | 0.00 | 0.00 | 85 | 1023.3 |
| 20260905215320 | 12 | 252 | 0.0 | 1.6 | 0.00 | 0.00 | 0.00 | 85 | 1023.3 |
| 20260905214821 | 12 | 252 | 1.6 | 1.6 | 0.00 | 0.00 | 0.00 | 85 | 1023.3 |
| 20260905214320 | 12 | 252 | 1.6 | 1.6 | 0.00 | 0.00 | 0.00 | 85 | 1023.4 |
| 20260905213819 | 12 | 252 | 1.6 | 1.6 | 0.00 | 0.00 | 0.00 | 84 | 1023.4 |
| 20260905213320 | 12 | 252 | 0.0 | 3.2 | 0.00 | 0.00 | 0.00 | 84 | 1023.5 |
| 20260905212821 | 12 | 252 | 0.0 | 1.6 | 0.00 | 0.00 | 0.00 | 84 | 1023.5 |
| 20260905212320 | 12 | 252 | 1.6 | 3.2 | 0.00 | 0.00 | 0.00 | 83 | 1023.5 |
| 20260905211822 | 12 | 252 | 0.0 | 3.2 | 0.00 | 0.00 | 0.00 | 83 | 1023.4 |
| 20260905210820 | 12 | 252 | 0.0 | 3.2 | 0.00 | 0.00 | 0.00 | 83 | 1023.6 |
| 20260905210320 | 12 | 252 | 0.0 | 1.6 | 0.00 | 0.00 | 0.00 | 82 | 1023.6 |
| 20260905205820 | 13 | 252 | 0.0 | 3.2 | 0.00 | 0.00 | 0.00 | 82 | 1023.6 |
| 20260905204820 | 13 | 252 | 1.6 | 3.2 | 0.00 | 0.00 | 0.00 | 82 | 1023.6 |
| 20260905204320 | 13 | 252 | 1.6 | 3.2 | 0.00 | 0.00 | 0.00 | 81 | 1023.6 |
| 20260905203320 | 13 | 252 | 0.0 | 3.2 | 0.00 | 0.00 | 0.00 | 81 | 1023.5 |
| 20260905202820 | 13 | 252 | 0.0 | 3.2 | 0.00 | 0.00 | 0.00 | 81 | 1023.4 |
| 20260905202320 | 13 | 252 | 1.6 | 3.2 | 0.00 | 0.00 | 0.00 | 81 | 1023.4 |
| 20260905201320 | 13 | 252 | 0.0 | 3.2 | 0.00 | 0.00 | 0.00 | 81 | 1023.4 |
| 20260905200820 | 13 | 252 | 0.0 | 1.6 | 0.00 | 0.00 | 0.00 | 81 | 1023.4 |
| 20260905200319 | 13 | 252 | 0.0 | 0.0 | 0.00 | 0.00 | 0.00 | 81 | 1023.3 |
| 20260905195820 | 13 | 252 | 0.0 | 0.0 | 0.00 | 0.00 | 0.00 | 81 | 1023.3 |
| 20260905195320 | 13 | 252 | 0.0 | 3.2 | 0.00 | 0.00 | 0.00 | 81 | 1023.3 |
| 20260905194820 | 13 | 252 | 0.0 | 1.6 | 0.00 | 0.00 | 0.00 | 80 | 1023.3 |
| 20260905193820 | 13 | 252 | 0.0 | 0.0 | 0.00 | 0.00 | 0.00 | 78 | 1023.3 |
| 20260905193320 | 13 | 252 | 0.0 | 3.2 | 0.00 | 0.00 | 0.00 | 78 | 1023.2 |
| 20260905191820 | 14 | 252 | 1.6 | 1.6 | 0.00 | 0.00 | 0.00 | 77 | 1022.9 |
| 20260905190320 | 14 | 252 | 0.0 | 3.2 | 0.00 | 0.00 | 0.00 | 76 | 1022.7 |
| 20260905185820 | 14 | 252 | 1.6 | 4.8 | 0.00 | 0.00 | 0.00 | 75 | 1022.9 |
| 20260905185320 | 15 | 252 | 1.6 | 4.8 | 0.00 | 0.00 | 0.00 | 75 | 1022.9 |
| 20260905184820 | 15 | 252 | 1.6 | 3.2 | 0.00 | 0.00 | 0.00 | 74 | 1022.8 |
| 20260905184320 | 15 | 252 | 3.2 | 4.8 | 0.00 | 0.00 | 0.00 | 74 | 1023.0 |
| 20260905183819 | 15 | 252 | 1.6 | 8.0 | 0.00 | 0.00 | 0.00 | 74 | 1023.0 |
| 20260905183320 | 15 | 253 | 1.6 | 4.8 | 0.00 | 0.00 | 0.00 | 73 | 1023.0 |
| 20260905182820 | 15 | 253 | 3.2 | 4.8 | 0.00 | 0.00 | 0.00 | 73 | 1023.0 |
| 20260905182320 | 15 | 250 | 1.6 | 4.8 | 0.00 | 0.00 | 0.00 | 72 | 1022.9 |
| 20260905181819 | 15 | 264 | 1.6 | 8.0 | 0.00 | 0.00 | 0.00 | 72 | 1022.8 |
| 20260905181319 | 15 | 264 | 1.6 | 4.8 | 0.00 | 0.00 | 0.00 | 72 | 1022.8 |
| 20260905180822 | 15 | 273 | 1.6 | 3.2 | 0.00 | 0.00 | 0.00 | 71 | 1022.8 |
| 20260905180320 | 15 | 282 | 1.6 | 4.8 | 0.00 | 0.00 | 0.00 | 71 | 1023.0 |
| 20260905175820 | 15 | 256 | 3.2 | 4.8 | 0.00 | 0.00 | 0.00 | 71 | 1023.1 |
| 20260905175320 | 15 | 251 | 3.2 | 11.3 | 0.00 | 0.00 | 0.00 | 70 | 1023.2 |
| 20260905174819 | 15 | 252 | 4.8 | 12.9 | 0.00 | 0.00 | 0.00 | 70 | 1023.0 |
| 20260905174320 | 15 | 261 | 4.8 | 12.9 | 0.00 | 0.00 | 0.00 | 69 | 1023.0 |
| 20260905173820 | 15 | 260 | 3.2 | 9.7 | 0.00 | 0.00 | 0.00 | 69 | 1023.0 |
| 20260905173319 | 15 | 280 | 4.8 | 9.7 | 0.00 | 0.00 | 0.00 | 69 | 1023.0 |
| 20260905172820 | 15 | 247 | 4.8 | 9.7 | 0.00 | 0.00 | 0.00 | 69 | 1022.9 |
| 20260905171820 | 16 | 252 | 6.4 | 11.3 | 0.00 | 0.00 | 0.00 | 68 | 1023.0 |
| 20260905171319 | 16 | 252 | 4.8 | 9.7 | 0.00 | 0.00 | 0.00 | 69 | 1023.0 |
| 20260905170819 | 16 | 236 | 3.2 | 8.0 | 0.00 | 0.00 | 0.00 | 68 | 1022.8 |
| 20260905170319 | 16 | 242 | 4.8 | 11.3 | 0.00 | 0.00 | 0.00 | 67 | 1022.9 |
| 20260905165820 | 16 | 266 | 6.4 | 12.9 | 0.00 | 0.00 | 0.00 | 66 | 1022.9 |
| 20260905165319 | 16 | 270 | 4.8 | 11.3 | 0.00 | 0.00 | 0.00 | 65 | 1022.9 |
| 20260905164820 | 16 | 240 | 4.8 | 11.3 | 0.00 | 0.00 | 0.00 | 65 | 1022.9 |
| 20260905164320 | 16 | 245 | 3.2 | 11.3 | 0.00 | 0.00 | 0.00 | 64 | 1022.8 |
| 20260905163819 | 17 | 254 | 6.4 | 12.9 | 0.00 | 0.00 | 0.00 | 64 | 1022.7 |
| 20260905163319 | 17 | 246 | 8.0 | 14.5 | 0.00 | 0.00 | 0.00 | 66 | 1022.7 |
| 20260905162821 | 16 | 250 | 4.8 | 11.3 | 0.00 | 0.00 | 0.00 | 67 | 1022.6 |
| 20260905162319 | 16 | 243 | 9.7 | 14.5 | 0.00 | 0.00 | 0.00 | 66 | 1022.6 |
| 20260905161820 | 16 | 239 | 4.8 | 11.3 | 0.00 | 0.00 | 0.00 | 66 | 1022.6 |
| 20260905161321 | 17 | 240 | 8.0 | 14.5 | 0.00 | 0.00 | 0.00 | 65 | 1022.5 |
| 20260905160819 | 16 | 250 | 8.0 | 19.3 | 0.00 | 0.00 | 0.00 | 66 | 1022.5 |
| 20260905160320 | 16 | 251 | 9.7 | 19.3 | 0.00 | 0.00 | 0.00 | 67 | 1022.4 |
| 20260905155820 | 16 | 252 | 9.7 | 16.1 | 0.00 | 0.00 | 0.00 | 66 | 1022.4 |
| 20260905155319 | 17 | 251 | 6.4 | 14.5 | 0.00 | 0.00 | 0.00 | 64 | 1022.4 |
| 20260905154820 | 17 | 249 | 9.7 | 19.3 | 0.00 | 0.00 | 0.00 | 63 | 1022.4 |
| 20260905154320 | 17 | 243 | 6.4 | 14.5 | 0.00 | 0.00 | 0.00 | 66 | 1022.3 |
| 20260905153819 | 16 | 243 | 6.4 | 14.5 | 0.00 | 0.00 | 0.00 | 67 | 1022.2 |
| 20260905153320 | 16 | 241 | 8.0 | 14.5 | 0.00 | 0.00 | 0.00 | 69 | 1022.4 |
| 20260905152820 | 16 | 257 | 8.0 | 14.5 | 0.00 | 0.00 | 0.00 | 69 | 1022.2 |
| 20260905152320 | 16 | 257 | 6.4 | 14.5 | 0.00 | 0.00 | 0.00 | 71 | 1022.1 |
| 20260905151820 | 16 | 242 | 8.0 | 22.5 | 0.00 | 0.00 | 0.00 | 71 | 1022.0 |
| 20260905150820 | 16 | 242 | 12.9 | 20.9 | 0.00 | 0.00 | 0.00 | 70 | 1022.0 |
| 20260905150319 | 16 | 260 | 8.0 | 19.3 | 0.00 | 0.00 | 0.00 | 70 | 1022.0 |
| 20260905145819 | 16 | 249 | 11.3 | 22.5 | 0.00 | 0.00 | 0.00 | 71 | 1022.1 |
| 20260905145319 | 16 | 246 | 8.0 | 14.5 | 0.00 | 0.00 | 0.00 | 71 | 1022.2 |
| 20260905144820 | 16 | 262 | 6.4 | 14.5 | 0.00 | 0.00 | 0.00 | 72 | 1022.1 |
| 20260905144321 | 16 | 247 | 4.8 | 14.5 | 0.00 | 0.00 | 0.00 | 71 | 1022.1 |
| 20260905143820 | 16 | 264 | 4.8 | 16.1 | 0.00 | 0.00 | 0.00 | 70 | 1022.1 |
| 20260905143319 | 16 | 254 | 8.0 | 20.9 | 0.00 | 0.00 | 0.00 | 69 | 1022.0 |
| 20260905142819 | 16 | 244 | 11.3 | 24.1 | 0.00 | 0.00 | 0.00 | 70 | 1022.0 |
| 20260905141820 | 16 | 258 | 11.3 | 22.5 | 0.00 | 0.00 | 0.00 | 69 | 1021.9 |
| 20260905141320 | 16 | 263 | 9.7 | 19.3 | 0.00 | 0.00 | 0.00 | 70 | 1022.0 |
| 20260905140820 | 16 | 262 | 8.0 | 12.9 | 0.00 | 0.00 | 0.00 | 69 | 1022.0 |
| 20260905140320 | 17 | 275 | 8.0 | 16.1 | 0.00 | 0.00 | 0.00 | 67 | 1022.0 |
| 20260905135820 | 17 | 280 | 4.8 | 14.5 | 0.00 | 0.00 | 0.00 | 67 | 1021.9 |
| 20260905135319 | 17 | 250 | 9.7 | 16.1 | 0.00 | 0.00 | 0.00 | 67 | 1021.8 |
| 20260905134819 | 17 | 254 | 9.7 | 16.1 | 0.00 | 0.00 | 0.00 | 67 | 1021.8 |
| 20260905134319 | 16 | 246 | 12.9 | 27.4 | 0.00 | 0.00 | 0.00 | 68 | 1021.8 |
| 20260905133819 | 16 | 251 | 12.9 | 24.1 | 0.00 | 0.00 | 0.00 | 69 | 1021.8 |
| 20260905133319 | 16 | 255 | 12.9 | 19.3 | 0.00 | 0.00 | 0.00 | 70 | 1021.8 |
| 20260905132820 | 16 | 254 | 6.4 | 16.1 | 0.00 | 0.00 | 0.00 | 71 | 1021.8 |
| 20260905132320 | 16 | 244 | 11.3 | 24.1 | 0.00 | 0.00 | 0.00 | 70 | 1021.7 |
| 20260905131319 | 16 | 245 | 8.0 | 19.3 | 0.00 | 0.00 | 0.00 | 70 | 1021.6 |
| 20260905130820 | 16 | 266 | 9.7 | 22.5 | 0.00 | 0.00 | 0.00 | 71 | 1021.6 |
| 20260905130319 | 16 | 239 | 11.3 | 19.3 | 0.00 | 0.00 | 0.00 | 70 | 1021.6 |
| 20260905125819 | 16 | 241 | 11.3 | 20.9 | 0.00 | 0.00 | 0.00 | 70 | 1021.6 |
| 20260905125319 | 16 | 251 | 8.0 | 16.1 | 0.00 | 0.00 | 0.00 | 73 | 1021.6 |
| 20260905124820 | 16 | 244 | 4.8 | 14.5 | 0.00 | 0.00 | 0.00 | 74 | 1021.6 |